Weather History for KRQE - October, 2012

Change the Weather History Date:

Thursday, October 4, 2012

  Actual Average Record
Temperature  
Mean Temperature 57 °F -  
Max Temperature 77 °F 69 °F 83 °F (1947)
Min Temperature 39 °F 37 °F 21 °F (2002)
Degree Days  
Heating Degree Days 8    
Growing Degree Days 7 (Base 50)    
Moisture  
Dew Point 24 °F    
Average Humidity 25    
Maximum Humidity 55    
Minimum Humidity 13    
Precipitation  
Precipitation 0.00 in - - ()
Sea Level Pressure  
Sea Level Pressure 29.97 in    
Wind  
Wind Speed 8 mph (SW)    
Max Wind Speed 22 mph    
Max Gust Speed 33 mph    
Visibility 10 miles    
Events      
Averages and records for this station are not official NWS values.
T = Trace of Precipitation, MM = Missing Value Source: NWS Daily Summary

Daily Weather History Graph

Daily Weather History Graph

Search for Another Location

Airport or City:

Trip Planner

Search our weather history database for the weather conditions in past years. The results will help you decide how hot, cold, wet, or windy it might be!

Date:

Astronomy

Oct. 04, 2012 Rise Set
Actual Time 7:14 AM MDT 6:54 PM MDT
Civil Twilight 6:48 AM MDT 7:20 PM MDT
Nautical Twilight 6:18 AM MDT 7:49 PM MDT
Astronomical Twilight 5:49 AM MDT 8:19 PM MDT
Moon 9:42 PM MDT (10/4) 11:24 AM MDT (10/4)
Length of Visible Light 12h 31m
Length of Day
11h 40m
Waning Gibbous, 81% of the Moon is Illuminated
Oct 4
Waning Gibbous
Oct 8
Last Quarter
Oct 15
New
Oct 21
First Quarter
Oct 29
Full

Hourly Weather History & Observations

Time (MDT) Temp. Dew Point Humidity Pressure Visibility Wind Dir Wind Speed Gust Speed Precip Events Conditions
12:53 AM 61.0 °F 25.0 °F 25% 29.91 in 10.0 mi South 5.8 mph - N/A   Clear
1:53 AM 61.0 °F 26.1 °F 26% 29.91 in 10.0 mi WSW 9.2 mph - N/A   Clear
2:53 AM 55.9 °F 25.0 °F 30% 29.94 in 10.0 mi SW 6.9 mph - N/A   Clear
3:53 AM 48.9 °F 25.0 °F 39% 29.96 in 10.0 mi Calm Calm - N/A   Clear
4:53 AM 48.9 °F 26.1 °F 41% 29.98 in 10.0 mi Calm Calm - N/A   Clear
5:53 AM 43.0 °F 25.0 °F 49% 30.02 in 10.0 mi Calm Calm - N/A   Clear
7:53 AM 39.0 °F 24.1 °F 55% 30.13 in 10.0 mi Calm Calm - N/A   Clear
8:53 AM 55.0 °F 27.0 °F 34% 30.06 in 10.0 mi Calm Calm - N/A   Clear
9:53 AM 66.0 °F 30.0 °F 26% 30.00 in 10.0 mi WSW 8.1 mph - N/A   Clear
10:53 AM 70.0 °F 26.1 °F 19% 30.01 in 10.0 mi West 12.7 mph 25.3 mph N/A   Clear
11:53 AM 72.0 °F 26.1 °F 18% 29.99 in 10.0 mi WSW 17.3 mph 23.0 mph N/A   Clear
12:53 PM 72.0 °F 21.9 °F 15% 29.98 in 10.0 mi West 21.9 mph 27.6 mph N/A   Clear
1:53 PM 73.9 °F 24.1 °F 16% 29.94 in 10.0 mi WSW 18.4 mph 26.5 mph N/A   Clear
2:53 PM 73.9 °F 21.9 °F 14% 29.95 in 10.0 mi WSW 20.7 mph 33.4 mph N/A   Clear
3:53 PM 75.9 °F 21.0 °F 13% 29.94 in 10.0 mi WSW 18.4 mph 24.2 mph N/A   Clear
4:53 PM 73.9 °F 19.9 °F 13% 29.93 in 10.0 mi WSW 20.7 mph 28.8 mph N/A   Clear
5:53 PM 73.0 °F 19.9 °F 14% 29.95 in 10.0 mi WSW 12.7 mph 25.3 mph N/A   Clear
6:53 PM 69.1 °F 19.9 °F 15% 29.98 in 10.0 mi WSW 11.5 mph - N/A   Clear
7:53 PM 64.9 °F 21.0 °F 19% 30.01 in 10.0 mi SW 5.8 mph - N/A   Clear
8:53 PM 62.1 °F 23.0 °F 22% 29.96 in 10.0 mi SSW 4.6 mph - N/A   Clear
9:53 PM 60.1 °F 23.0 °F 24% 29.94 in 10.0 mi SW 6.9 mph - N/A   Clear
10:53 PM 55.9 °F 23.0 °F 28% 29.95 in 10.0 mi SW 4.6 mph - N/A   Clear
11:53 PM 55.0 °F 25.0 °F 31% 29.94 in 10.0 mi SSW 4.6 mph - N/A   Clear